(°C)
12°
14°
17°
18°
19°
(°C)
11°
13°
14°
15°
Z
Z
ZSZ
ZSZ
ZSZ
ZSZ
ZSZ
(km/h)
10-22
11-22
12-14
12-12
13-13
14-14
16-24
(mm)
0
0
0
0
0
0
0
(%)
0
0
0
0
0
0
0

Sun elevation

/ 9.7°
sun-icon
UV 2
06:10
19:54
Mlad mesec (37°)
07:44
23:27

METAR for 48.78°S 44.34°I (URWW)

Vreme Conditions Temperatura/
Tačka rose
Vetar Vidljivost Prognoza Oblaci Pritisak Change Raw
VFR 7°C / 5°C 360º 8kt >10km - Clouds and Visibility OK 1014 Temporary: 30009G15MPS Visibility 1000. Thunderstorm Rain . Broken Clouds 400ft. Broken Clouds 2000ft. Cumulonimbus . Runway 24: Clear and dry, 1-10% contamination with <1mm, friction coefficient 0.70. URWW 150300Z 36004MPS CAVOK 07/05 Q1014 R24/010070 TEMPO 30009G15MPS 1000 TSRA BKN004 BKN020CB
VFR 7°C / 5°C 340º 6kt >10km - Clouds and Visibility OK 1014 Temporary: 30009G15MPS Visibility 1000. Thunderstorm Rain . Broken Clouds 400ft. Broken Clouds 2000ft. Cumulonimbus . Runway 24: Clear and dry, 1-10% contamination with <1mm, friction coefficient 0.70. URWW 150230Z 34003MPS CAVOK 07/05 Q1014 R24/010070 TEMPO 30009G15MPS 1000 TSRA BKN004 BKN020CB
VFR 7°C / 5°C 340º 6kt >10km - Clouds and Visibility OK 1014 Temporary: 30009G15MPS Visibility 1000. Thunderstorm Rain . Broken Clouds 400ft. Broken Clouds 2000ft. Cumulonimbus . Runway 24: Clear and dry, 1-10% contamination with <1mm, friction coefficient 0.70. URWW 150200Z 34003MPS CAVOK 07/05 Q1014 R24/010070 TEMPO 30009G15MPS 1000 TSRA BKN004 BKN020CB
VFR 8°C / 5°C 350º variable 320º to 020º 4kt >10km - Clouds and Visibility OK 1014 Temporary: 30009G15MPS Visibility 1000. Thunderstorm Rain . Broken Clouds 400ft. Broken Clouds 2000ft. Cumulonimbus . Runway 24: Clear and dry, 1-10% contamination with <1mm, friction coefficient 0.70. URWW 150130Z 35002MPS 320V020 CAVOK 08/05 Q1014 R24/010070 TEMPO 30009G15MPS 1000 TSRA BKN004 BKN020CB
VFR 8°C / 5°C 310º 6kt >10km - Clouds and Visibility OK 1014 Temporary: 30009G15MPS Visibility 1000. Thunderstorm Rain . Broken Clouds 400ft. Broken Clouds 2000ft. Cumulonimbus . Runway 24: Clear and dry, 1-10% contamination with <1mm, friction coefficient 0.70. URWW 150100Z 31003MPS CAVOK 08/05 Q1014 R24/010070 TEMPO 30009G15MPS 1000 TSRA BKN004 BKN020CB
VFR 8°C / 5°C 310º 4kt >10km - Clouds and Visibility OK 1015 Temporary: 30009G15MPS Visibility 1000. Showers Rain . Broken Clouds 400ft. Broken Clouds 2000ft. Cumulonimbus . Runway 24: Clear and dry, 1-10% contamination with <1mm, friction coefficient 0.70. URWW 150030Z 31002MPS CAVOK 08/05 Q1015 R24/010070 TEMPO 30009G15MPS 1000 SHRA BKN004 BKN020CB
VFR 9°C / 6°C 270º 4kt >10km - Clouds and Visibility OK 1015 Temporary: 30009G15MPS Visibility 1000. Showers Rain . Broken Clouds 400ft. Broken Clouds 2000ft. Cumulonimbus . Runway 24: Clear and dry, 1-10% contamination with <1mm, friction coefficient 0.70. URWW 150000Z 27002MPS CAVOK 09/06 Q1015 R24/010070 TEMPO 30009G15MPS 1000 SHRA BKN004 BKN020CB
VFR 9°C / 6°C 260º 6kt >10km - Clouds and Visibility OK 1015 Temporary: 30009G15MPS Visibility 1000. Showers Rain . Broken Clouds 400ft. Broken Clouds 2000ft. Cumulonimbus . Runway 24: Clear and dry, 1-10% contamination with <1mm, friction coefficient 0.70. URWW 142330Z 26003MPS CAVOK 09/06 Q1015 R24/010070 TEMPO 30009G15MPS 1000 SHRA BKN004 BKN020CB
VFR 9°C / 6°C 250º 8kt >10km - Clouds and Visibility OK 1015 Temporary: 30009G15MPS Visibility 1000. Showers Rain . Broken Clouds 400ft. Broken Clouds 2000ft. Cumulonimbus . Runway 24: Clear and dry, 1-10% contamination with <1mm, friction coefficient 0.70. URWW 142300Z 25004MPS CAVOK 09/06 Q1015 R24/010070 TEMPO 30009G15MPS 1000 SHRA BKN004 BKN020CB
VFR 10°C / 5°C 250º 10kt >10km - Clouds and Visibility OK 1015 Temporary: 30009G15MPS Visibility 1000. Showers Rain . Broken Clouds 400ft. Broken Clouds 2000ft. Cumulonimbus . Runway 24: Clear and dry, 1-10% contamination with <1mm, friction coefficient 0.70. URWW 142230Z 25005MPS CAVOK 10/05 Q1015 R24/010070 TEMPO 30009G15MPS 1000 SHRA BKN004 BKN020CB
VFR 11°C / 5°C 270º 10kt >10km - Clouds and Visibility OK 1015 Temporary: 30009G15MPS Visibility 1000. Showers Rain . Broken Clouds 400ft. Broken Clouds 2000ft. Cumulonimbus . Runway 24: Clear and dry, 1-10% contamination with <1mm, friction coefficient 0.70. URWW 142200Z 27005MPS CAVOK 11/05 Q1015 R24/010070 TEMPO 30009G15MPS 1000 SHRA BKN004 BKN020CB
VFR 12°C / 5°C 250º variable 190º to 270º 10kt >10km - Clouds and Visibility OK 1015 Temporary: 30009G15MPS Visibility 1000. Showers Rain . Broken Clouds 400ft. Broken Clouds 2000ft. Cumulonimbus . Runway 24: Clear and dry, 1-10% contamination with <1mm, friction coefficient 0.70. URWW 142130Z 25005MPS 190V270 CAVOK 12/05 Q1015 R24/010070 TEMPO 30009G15MPS 1000 SHRA BKN004 BKN020CB
VFR 11°C / 5°C 250º 10kt >10km - Clouds and Visibility OK 1015 Temporary: 30009G15MPS Visibility 1000. Showers Rain . Broken Clouds 400ft. Broken Clouds 2000ft. Cumulonimbus . Runway 24: Clear and dry, 1-10% contamination with <1mm, friction coefficient 0.70. URWW 142100Z 25005MPS CAVOK 11/05 Q1015 R24/010070 TEMPO 30009G15MPS 1000 SHRA BKN004 BKN020CB
VFR 12°C / 5°C 250º 12kt >10km - Clouds and Visibility OK 1015 Temporary: Visibility 1000. Thunderstorm Rain Hail . Broken Clouds 400ft. Broken Clouds 2000ft. Cumulonimbus . Runway 06: Clear and dry, 1-10% contamination with <1mm, friction coefficient 0.70. URWW 142030Z 25006MPS CAVOK 12/05 Q1015 R06/010070 TEMPO 1000 TSRAGR BKN004 BKN020CB
VFR 11°C / 3°C 260º 10kt >10km - Clouds and Visibility OK 1015 Temporary: Visibility 1000. Thunderstorm Rain Hail . Broken Clouds 400ft. Broken Clouds 2000ft. Cumulonimbus . Runway 06: Clear and dry, 1-10% contamination with <1mm, friction coefficient 0.70. URWW 142000Z 26005MPS CAVOK 11/03 Q1015 R06/010070 TEMPO 1000 TSRAGR BKN004 BKN020CB
VFR 12°C / 1°C 350º 10kt >10km - Clouds and Visibility OK 1015 Temporary: Visibility 1000. Thunderstorm Rain Hail . Broken Clouds 400ft. Broken Clouds 2000ft. Cumulonimbus . Runway 06: Clear and dry, 1-10% contamination with <1mm, friction coefficient 0.70. URWW 141930Z 35005MPS CAVOK 12/01 Q1015 R06/010070 TEMPO 1000 TSRAGR BKN004 BKN020CB
VFR 11°C / 3°C 270º 8kt >10km - Clouds and Visibility OK 1015 Temporary: Visibility 1000. Thunderstorm Rain Hail . Broken Clouds 400ft. Broken Clouds 2000ft. Cumulonimbus . Runway 06: Clear and dry, 1-10% contamination with <1mm, friction coefficient 0.70. URWW 141900Z 27004MPS CAVOK 11/03 Q1015 R06/010070 TEMPO 1000 TSRAGR BKN004 BKN020CB
VFR 13°C / 1°C 330º 4kt >10km - Clouds and Visibility OK 1015 Temporary: Visibility 1000. Thunderstorm Rain Hail . Broken Clouds 400ft. Broken Clouds 2000ft. Cumulonimbus . Runway 06: Clear and dry, 1-10% contamination with <1mm, friction coefficient 0.70. URWW 141830Z 33002MPS CAVOK 13/01 Q1015 R06/010070 TEMPO 1000 TSRAGR BKN004 BKN020CB
VFR 13°C / 1°C 350º 6kt >10km - Clouds and Visibility OK 1015 Temporary: Visibility 1000. Thunderstorm Rain Hail . Broken Clouds 400ft. Broken Clouds 2000ft. Cumulonimbus . Runway 06: Clear and dry, 1-10% contamination with <1mm, friction coefficient 0.70. URWW 141800Z 35003MPS CAVOK 13/01 Q1015 R06/010070 TEMPO 1000 TSRAGR BKN004 BKN020CB
VFR 14°C / 1°C 10º 6kt >10km - Clouds and Visibility OK 1016 Temporary: Visibility 1000. Thunderstorm Rain Hail . Broken Clouds 400ft. Broken Clouds 2000ft. Cumulonimbus . Runway 06: Clear and dry, 1-10% contamination with <1mm, friction coefficient 0.70. URWW 141730Z 01003MPS CAVOK 14/01 Q1016 R06/010070 TEMPO 1000 TSRAGR BKN004 BKN020CB
VFR 14°C / 2°C 360º 6kt >10km - Clouds and Visibility OK 1016 Temporary: Visibility 1000. Thunderstorm Rain Hail . Broken Clouds 400ft. Broken Clouds 2000ft. Cumulonimbus . Runway 06: Clear and dry, 1-10% contamination with <1mm, friction coefficient 0.70. URWW 141700Z 36003MPS CAVOK 14/02 Q1016 R06/010070 TEMPO 1000 TSRAGR BKN004 BKN020CB
VFR 16°C / 2°C 320º 6kt >10km - Clouds and Visibility OK 1016 Temporary: Visibility 1000. Thunderstorm Rain Hail . Broken Clouds 400ft. Broken Clouds 2000ft. Cumulonimbus . Runway 06: Clear and dry, 1-10% contamination with <1mm, friction coefficient 0.70. URWW 141630Z 32003MPS CAVOK 16/02 Q1016 R06/010070 TEMPO 1000 TSRAGR BKN004 BKN020CB
VFR 18°C / 2°C 330º 4kt >10km - Clouds and Visibility OK 1015 Temporary: Visibility 1000. Thunderstorm Rain Hail . Broken Clouds 400ft. Broken Clouds 2000ft. Cumulonimbus . Runway 06: Clear and dry, 1-10% contamination with <1mm, friction coefficient 0.70. URWW 141600Z 33002MPS CAVOK 18/02 Q1015 R06/010070 TEMPO 1000 TSRAGR BKN004 BKN020CB
VFR 18°C / 1°C 170º variable 120º to 240º 6kt >10km - Clouds and Visibility OK 1015 Temporary: Visibility 1000. Thunderstorm Rain Hail . Broken Clouds 400ft. Broken Clouds 2000ft. Cumulonimbus . Runway 06: Clear and dry, 1-10% contamination with <1mm, friction coefficient 0.70. URWW 141530Z 17003MPS 120V240 CAVOK 18/01 Q1015 R06/010070 TEMPO 1000 TSRAGR BKN004 BKN020CB

VFR

7°C / 5°C

[Više]
Vetar 360º 8kt
Vidljivost >10km
Prognoza -
Oblaci Clouds and Visibility OK
Pritisak 1014
Change Temporary: 30009G15MPS Visibility 1000. Thunderstorm Rain . Broken Clouds 400ft. Broken Clouds 2000ft. Cumulonimbus . Runway 24: Clear and dry, 1-10% contamination with <1mm, friction coefficient 0.70.
Raw URWW 150300Z 36004MPS CAVOK 07/05 Q1014 R24/010070 TEMPO 30009G15MPS 1000 TSRA BKN004 BKN020CB

VFR

7°C / 5°C

[Više]
Vetar 340º 6kt
Vidljivost >10km
Prognoza -
Oblaci Clouds and Visibility OK
Pritisak 1014
Change Temporary: 30009G15MPS Visibility 1000. Thunderstorm Rain . Broken Clouds 400ft. Broken Clouds 2000ft. Cumulonimbus . Runway 24: Clear and dry, 1-10% contamination with <1mm, friction coefficient 0.70.
Raw URWW 150230Z 34003MPS CAVOK 07/05 Q1014 R24/010070 TEMPO 30009G15MPS 1000 TSRA BKN004 BKN020CB

VFR

7°C / 5°C

[Više]
Vetar 340º 6kt
Vidljivost >10km
Prognoza -
Oblaci Clouds and Visibility OK
Pritisak 1014
Change Temporary: 30009G15MPS Visibility 1000. Thunderstorm Rain . Broken Clouds 400ft. Broken Clouds 2000ft. Cumulonimbus . Runway 24: Clear and dry, 1-10% contamination with <1mm, friction coefficient 0.70.
Raw URWW 150200Z 34003MPS CAVOK 07/05 Q1014 R24/010070 TEMPO 30009G15MPS 1000 TSRA BKN004 BKN020CB

VFR

8°C / 5°C

[Više]
Vetar 350º variable 320º to 020º 4kt
Vidljivost >10km
Prognoza -
Oblaci Clouds and Visibility OK
Pritisak 1014
Change Temporary: 30009G15MPS Visibility 1000. Thunderstorm Rain . Broken Clouds 400ft. Broken Clouds 2000ft. Cumulonimbus . Runway 24: Clear and dry, 1-10% contamination with <1mm, friction coefficient 0.70.
Raw URWW 150130Z 35002MPS 320V020 CAVOK 08/05 Q1014 R24/010070 TEMPO 30009G15MPS 1000 TSRA BKN004 BKN020CB

VFR

8°C / 5°C

[Više]
Vetar 310º 6kt
Vidljivost >10km
Prognoza -
Oblaci Clouds and Visibility OK
Pritisak 1014
Change Temporary: 30009G15MPS Visibility 1000. Thunderstorm Rain . Broken Clouds 400ft. Broken Clouds 2000ft. Cumulonimbus . Runway 24: Clear and dry, 1-10% contamination with <1mm, friction coefficient 0.70.
Raw URWW 150100Z 31003MPS CAVOK 08/05 Q1014 R24/010070 TEMPO 30009G15MPS 1000 TSRA BKN004 BKN020CB

VFR

8°C / 5°C

[Više]
Vetar 310º 4kt
Vidljivost >10km
Prognoza -
Oblaci Clouds and Visibility OK
Pritisak 1015
Change Temporary: 30009G15MPS Visibility 1000. Showers Rain . Broken Clouds 400ft. Broken Clouds 2000ft. Cumulonimbus . Runway 24: Clear and dry, 1-10% contamination with <1mm, friction coefficient 0.70.
Raw URWW 150030Z 31002MPS CAVOK 08/05 Q1015 R24/010070 TEMPO 30009G15MPS 1000 SHRA BKN004 BKN020CB

VFR

9°C / 6°C

[Više]
Vetar 270º 4kt
Vidljivost >10km
Prognoza -
Oblaci Clouds and Visibility OK
Pritisak 1015
Change Temporary: 30009G15MPS Visibility 1000. Showers Rain . Broken Clouds 400ft. Broken Clouds 2000ft. Cumulonimbus . Runway 24: Clear and dry, 1-10% contamination with <1mm, friction coefficient 0.70.
Raw URWW 150000Z 27002MPS CAVOK 09/06 Q1015 R24/010070 TEMPO 30009G15MPS 1000 SHRA BKN004 BKN020CB

VFR

9°C / 6°C

[Više]
Vetar 260º 6kt
Vidljivost >10km
Prognoza -
Oblaci Clouds and Visibility OK
Pritisak 1015
Change Temporary: 30009G15MPS Visibility 1000. Showers Rain . Broken Clouds 400ft. Broken Clouds 2000ft. Cumulonimbus . Runway 24: Clear and dry, 1-10% contamination with <1mm, friction coefficient 0.70.
Raw URWW 142330Z 26003MPS CAVOK 09/06 Q1015 R24/010070 TEMPO 30009G15MPS 1000 SHRA BKN004 BKN020CB

VFR

9°C / 6°C

[Više]
Vetar 250º 8kt
Vidljivost >10km
Prognoza -
Oblaci Clouds and Visibility OK
Pritisak 1015
Change Temporary: 30009G15MPS Visibility 1000. Showers Rain . Broken Clouds 400ft. Broken Clouds 2000ft. Cumulonimbus . Runway 24: Clear and dry, 1-10% contamination with <1mm, friction coefficient 0.70.
Raw URWW 142300Z 25004MPS CAVOK 09/06 Q1015 R24/010070 TEMPO 30009G15MPS 1000 SHRA BKN004 BKN020CB

VFR

10°C / 5°C

[Više]
Vetar 250º 10kt
Vidljivost >10km
Prognoza -
Oblaci Clouds and Visibility OK
Pritisak 1015
Change Temporary: 30009G15MPS Visibility 1000. Showers Rain . Broken Clouds 400ft. Broken Clouds 2000ft. Cumulonimbus . Runway 24: Clear and dry, 1-10% contamination with <1mm, friction coefficient 0.70.
Raw URWW 142230Z 25005MPS CAVOK 10/05 Q1015 R24/010070 TEMPO 30009G15MPS 1000 SHRA BKN004 BKN020CB

VFR

11°C / 5°C

[Više]
Vetar 270º 10kt
Vidljivost >10km
Prognoza -
Oblaci Clouds and Visibility OK
Pritisak 1015
Change Temporary: 30009G15MPS Visibility 1000. Showers Rain . Broken Clouds 400ft. Broken Clouds 2000ft. Cumulonimbus . Runway 24: Clear and dry, 1-10% contamination with <1mm, friction coefficient 0.70.
Raw URWW 142200Z 27005MPS CAVOK 11/05 Q1015 R24/010070 TEMPO 30009G15MPS 1000 SHRA BKN004 BKN020CB

VFR

12°C / 5°C

[Više]
Vetar 250º variable 190º to 270º 10kt
Vidljivost >10km
Prognoza -
Oblaci Clouds and Visibility OK
Pritisak 1015
Change Temporary: 30009G15MPS Visibility 1000. Showers Rain . Broken Clouds 400ft. Broken Clouds 2000ft. Cumulonimbus . Runway 24: Clear and dry, 1-10% contamination with <1mm, friction coefficient 0.70.
Raw URWW 142130Z 25005MPS 190V270 CAVOK 12/05 Q1015 R24/010070 TEMPO 30009G15MPS 1000 SHRA BKN004 BKN020CB

VFR

11°C / 5°C

[Više]
Vetar 250º 10kt
Vidljivost >10km
Prognoza -
Oblaci Clouds and Visibility OK
Pritisak 1015
Change Temporary: 30009G15MPS Visibility 1000. Showers Rain . Broken Clouds 400ft. Broken Clouds 2000ft. Cumulonimbus . Runway 24: Clear and dry, 1-10% contamination with <1mm, friction coefficient 0.70.
Raw URWW 142100Z 25005MPS CAVOK 11/05 Q1015 R24/010070 TEMPO 30009G15MPS 1000 SHRA BKN004 BKN020CB

VFR

12°C / 5°C

[Više]
Vetar 250º 12kt
Vidljivost >10km
Prognoza -
Oblaci Clouds and Visibility OK
Pritisak 1015
Change Temporary: Visibility 1000. Thunderstorm Rain Hail . Broken Clouds 400ft. Broken Clouds 2000ft. Cumulonimbus . Runway 06: Clear and dry, 1-10% contamination with <1mm, friction coefficient 0.70.
Raw URWW 142030Z 25006MPS CAVOK 12/05 Q1015 R06/010070 TEMPO 1000 TSRAGR BKN004 BKN020CB

VFR

11°C / 3°C

[Više]
Vetar 260º 10kt
Vidljivost >10km
Prognoza -
Oblaci Clouds and Visibility OK
Pritisak 1015
Change Temporary: Visibility 1000. Thunderstorm Rain Hail . Broken Clouds 400ft. Broken Clouds 2000ft. Cumulonimbus . Runway 06: Clear and dry, 1-10% contamination with <1mm, friction coefficient 0.70.
Raw URWW 142000Z 26005MPS CAVOK 11/03 Q1015 R06/010070 TEMPO 1000 TSRAGR BKN004 BKN020CB

VFR

12°C / 1°C

[Više]
Vetar 350º 10kt
Vidljivost >10km
Prognoza -
Oblaci Clouds and Visibility OK
Pritisak 1015
Change Temporary: Visibility 1000. Thunderstorm Rain Hail . Broken Clouds 400ft. Broken Clouds 2000ft. Cumulonimbus . Runway 06: Clear and dry, 1-10% contamination with <1mm, friction coefficient 0.70.
Raw URWW 141930Z 35005MPS CAVOK 12/01 Q1015 R06/010070 TEMPO 1000 TSRAGR BKN004 BKN020CB

VFR

11°C / 3°C

[Više]
Vetar 270º 8kt
Vidljivost >10km
Prognoza -
Oblaci Clouds and Visibility OK
Pritisak 1015
Change Temporary: Visibility 1000. Thunderstorm Rain Hail . Broken Clouds 400ft. Broken Clouds 2000ft. Cumulonimbus . Runway 06: Clear and dry, 1-10% contamination with <1mm, friction coefficient 0.70.
Raw URWW 141900Z 27004MPS CAVOK 11/03 Q1015 R06/010070 TEMPO 1000 TSRAGR BKN004 BKN020CB

VFR

13°C / 1°C

[Više]
Vetar 330º 4kt
Vidljivost >10km
Prognoza -
Oblaci Clouds and Visibility OK
Pritisak 1015
Change Temporary: Visibility 1000. Thunderstorm Rain Hail . Broken Clouds 400ft. Broken Clouds 2000ft. Cumulonimbus . Runway 06: Clear and dry, 1-10% contamination with <1mm, friction coefficient 0.70.
Raw URWW 141830Z 33002MPS CAVOK 13/01 Q1015 R06/010070 TEMPO 1000 TSRAGR BKN004 BKN020CB

VFR

13°C / 1°C

[Više]
Vetar 350º 6kt
Vidljivost >10km
Prognoza -
Oblaci Clouds and Visibility OK
Pritisak 1015
Change Temporary: Visibility 1000. Thunderstorm Rain Hail . Broken Clouds 400ft. Broken Clouds 2000ft. Cumulonimbus . Runway 06: Clear and dry, 1-10% contamination with <1mm, friction coefficient 0.70.
Raw URWW 141800Z 35003MPS CAVOK 13/01 Q1015 R06/010070 TEMPO 1000 TSRAGR BKN004 BKN020CB

VFR

14°C / 1°C

[Više]
Vetar 10º 6kt
Vidljivost >10km
Prognoza -
Oblaci Clouds and Visibility OK
Pritisak 1016
Change Temporary: Visibility 1000. Thunderstorm Rain Hail . Broken Clouds 400ft. Broken Clouds 2000ft. Cumulonimbus . Runway 06: Clear and dry, 1-10% contamination with <1mm, friction coefficient 0.70.
Raw URWW 141730Z 01003MPS CAVOK 14/01 Q1016 R06/010070 TEMPO 1000 TSRAGR BKN004 BKN020CB

VFR

14°C / 2°C

[Više]
Vetar 360º 6kt
Vidljivost >10km
Prognoza -
Oblaci Clouds and Visibility OK
Pritisak 1016
Change Temporary: Visibility 1000. Thunderstorm Rain Hail . Broken Clouds 400ft. Broken Clouds 2000ft. Cumulonimbus . Runway 06: Clear and dry, 1-10% contamination with <1mm, friction coefficient 0.70.
Raw URWW 141700Z 36003MPS CAVOK 14/02 Q1016 R06/010070 TEMPO 1000 TSRAGR BKN004 BKN020CB

VFR

16°C / 2°C

[Više]
Vetar 320º 6kt
Vidljivost >10km
Prognoza -
Oblaci Clouds and Visibility OK
Pritisak 1016
Change Temporary: Visibility 1000. Thunderstorm Rain Hail . Broken Clouds 400ft. Broken Clouds 2000ft. Cumulonimbus . Runway 06: Clear and dry, 1-10% contamination with <1mm, friction coefficient 0.70.
Raw URWW 141630Z 32003MPS CAVOK 16/02 Q1016 R06/010070 TEMPO 1000 TSRAGR BKN004 BKN020CB

VFR

18°C / 2°C

[Više]
Vetar 330º 4kt
Vidljivost >10km
Prognoza -
Oblaci Clouds and Visibility OK
Pritisak 1015
Change Temporary: Visibility 1000. Thunderstorm Rain Hail . Broken Clouds 400ft. Broken Clouds 2000ft. Cumulonimbus . Runway 06: Clear and dry, 1-10% contamination with <1mm, friction coefficient 0.70.
Raw URWW 141600Z 33002MPS CAVOK 18/02 Q1015 R06/010070 TEMPO 1000 TSRAGR BKN004 BKN020CB

VFR

18°C / 1°C

[Više]
Vetar 170º variable 120º to 240º 6kt
Vidljivost >10km
Prognoza -
Oblaci Clouds and Visibility OK
Pritisak 1015
Change Temporary: Visibility 1000. Thunderstorm Rain Hail . Broken Clouds 400ft. Broken Clouds 2000ft. Cumulonimbus . Runway 06: Clear and dry, 1-10% contamination with <1mm, friction coefficient 0.70.
Raw URWW 141530Z 17003MPS 120V240 CAVOK 18/01 Q1015 R06/010070 TEMPO 1000 TSRAGR BKN004 BKN020CB

TAF for 48.78°S 44.34°I (URWW)

From till


From till Wind 340º 6kt. Gust 19kt. Visibility 10km or more. Broken Clouds 1600ft. Broken Clouds 3000ft.
Temporarly from till Wind 300º 10kt. Gust 19kt.
With 40% probability, Temporarly from till Visibility 997.791m. Thunderstorm Rain Thunderstorm Hail .

Raw: TAF URWW 150157Z 1503/1512 34003G10MPS 9999 BKN016 BKN030CB TEMPO 1503/1512 30005G10MPS PROB40 TEMPO 1503/1512 1000 TSRAGR

Current satellite and rain images for 48.78°S 44.34°I

Marker lokacije postavljen je na 48.78°S 44.34°I. [Više]

The real-time satellite image combines visible light during daytime with infrared radiation during nighttime. At night, the image is not dark as infrared radiation can detect temperature differences. Unfortunately, low clouds and fog are difficult to distinguish from ground temperatures and thus can be almost invisible during the night. Meteosat satellite images for Europe are updated in real-time every 5 minutes. GOES-16/GOES-17 (North & South America) and Himawari (Asia) images update every 10 minutes.

Autorsko pravo 2021 EUMETSAT / meteoblue. / Autorsko pravo 2021 meteoblue

Radar i padavine kratka prognoza za 48.78°S 44.34°I

Marker lokacije postavljen je na 48.78°S 44.34°I. Ova animacija prikazuje radar padavina za poslednji sat, kao i 1h prognozu. Moguće je da rominjanje i slab sneg ne budu vidljivi na ovom radaru. Intezitet padavina je predstavljen bojama koje varijaju od svetlo plave do jako ljubičaste.